Погода в Чайбухе

Россия / Магаданская область     61°48′12″N   160°24′43″E
темп.,
°C
ветер,
м/с
пор.,
м/с
влажн.,
%
обл.,
%
осадки,
мм/ч
давл.,
гПа
погр.,
м
25 сентября, сб
сб2523:00+5юв117610 0.0 102135
02:00+4юв22735 0.0 102140
05:00+4ююв22675 0.0 102149
08:00+6ю23665 0.0 1021126
11:00+8юз44655 0.0 1020591
14:00+9юз55655 0.0 1019638
17:00+8юз467223 0.0 1018262
20:00+6ю357690 0.0 1018131
26 сентября, вс
вс2623:00+5ю2372100 0.0 1018105
02:00+5ю2267100 0.0 101660
05:00+5юв1166100 0.0 101636
08:00+6всв1165100 0.0 101571
11:00+8с3262100 0.0 1015460
14:00+8с3364100 0.0 1014558
17:00+8ссв357238 0.0 1014133
20:00+5ссв468213 0.0 1015160
27 сентября, пн
пн2723:00+4ссв578872 0.0 1015223
02:00+5св468485 0.0 1014191
05:00+4ссв578186 0.0 1015218
08:00+4ссв676750 0.0 1015310
11:00+6ссв77475 0.0 1014668
14:00+7ссв55433 0.0 1013824
17:00+6ссв354716 0.0 1012401
20:00+4с58535 0.0 1013337
28 сентября, вт
вт2823:00+2ссв36575 0.0 1013288
02:00+1юв225890 0.0 101256
05:00+2ююз335681 0.0 1013113
08:00+4ююз225874 0.0 1013121
11:00+5с674531 0.0 10131255
14:00+6ссв334253 0.0 10131157
17:00+5в114643 0.0 1012272
20:00+3ю4560100 0.0 1012186
29 сентября, ср
ср2923:00+3ю3466100 0.0 1011187
02:00+2вюв2282100 0.1 1010252
05:00+1ссв5699100 1.7 1008239
08:00−1ссв91194100 1.4 1009461
11:000св91264100 1.6 10111023
14:00+1ссв91245100 0.0 10131610
17:000св59444 0.0 1016770
20:00−3св25535 0.0 1019410